Briefing drone pour Chevigny-saint-sauveur

Rechercher une autre localisation

Conditions de vol :


Nous sommes le : Mercredi 07 décembre 2022
Il est 19:35 UTC (20:35 LT)

Lever de soleil : 06:46 UTC (07:46 LT)
Coucher de soleil : 16:15 UTC (17:15 LT)

Météo

L'essentiel des conditions de vol

VIGILANCE MÉTÉO FRANCE - Côte-dOr (21)
Pas de vigilances particulieres
METAR de LFSD
LFSD 071930Z AUTO 33005KT CAVOK M01/M02 Q1015

Date d'émission: 07/12/2022
Heure d'émission: 19:30 UTC
Vent: 330° pour 5 KT (9 km/h)
Visibilité horizontale: > 10 km
Plafond : Plafond et visibilité OK (CAVOK)
Température: -1 °C
Point de rosée: -2 °C
Humidité: 93%
Pression (QNH): 1015 hPa
TAF de LFSD
LFSD 010600Z 0100/0124 CNL

Conditions prévues :

Heure d'émission : Bulletin éffectué le 01 à 00:00 UTC
Prévision : Valide du 01 a 00:00 UTC au 01 a 23:59 UTC
Nuages : à 0ft (0 m)
WEBCAM POUR CHEVIGNY-SAINT-SAUVEUR

Réglementation

Voler en sécurité

CARTES AERONAUTIQUE 1/500.000
CARTE AZBA (Reseau basse altitude)
CARTES VAC (LFSD)
SUP AIP




Chargement des AIP...
NOTAM (CHEVIGNY-SAINT-SAUVEUR + Terrain à proximité / FIR )




Chargement des NOTAMS...
CONTACT PREFECTURE 21
Côte-dOr (21) : pref-drone@cote-dor.gouv.fr


Avertissement : Les données mises à disposition sont indicatives. Oxygène Drone ne pourra être tenu responsable de dégâts causés aux biens et aux personnes.